Regional Weather Roundup
Issued by NWS

Home | Current Version | Previous Version | Graphics & Text | Print | Product List | Glossary On
Versions: 1 2 3 4 5 6 7 8 9 10 11 12 13 14 15 16 17 18 19 20 21 22 23 24 25 26 27 28 29 30 31 32 33 34 35 36 37 38 39 40 41 42 43 44 45 46 47 48 49 50
000
ASUS43 KLSX 260007
RWRMO

WEATHER SUMMARY FOR MISSOURI
NATIONAL WEATHER SERVICE SPRINGFIELD MO
700 PM CDT FRI JUL 25 2014

NOTE: "FAIR" INDICATES FEW OR NO CLOUDS BELOW 12,000 FEET WITH NO
       SIGNIFICANT WEATHER AND/OR OBSTRUCTIONS TO VISIBILITY.
       CURRENT SKY AND/OR WEATHER CONDITIONS ARE NOT AVAILABLE FOR
       CHILLICOTHE AND FARMINGTON.

MOZ001>031-035>038-043-044-053-054-260100-
...NORTHERN AND WESTERN MISSOURI...

CITY           SKY/WX    TMP DP  RH WIND       PRES   REMARKS
KANSAS CTY INT PTSUNNY   92  72  51 S16       29.76F HX  99
6HR MIN TEMP:  90; 6HR MAX TEMP:  96;

KANSAS C DTWN  MOSUNNY   94  72  48 S18G24    29.75F HX 102
6HR MIN TEMP:  93; 6HR MAX TEMP:  98; 6HR PCP: TRACE;

LEE`S SUMMIT   MOSUNNY   90  73  57 S10G24    29.80S HX  98
6HR MIN TEMP:  88; 6HR MAX TEMP:  94;

ST JOSEPH      SUNNY     93  75  55 S10       29.73S HX 104
6HR MIN TEMP:  89; 6HR MAX TEMP:  95;

CHILLICOTHE      N/A     89  76  65 S8        29.77S HX 100
6HR MIN TEMP:  80; 6HR MAX TEMP:  91;

KIRKSVILLE     MOSUNNY   78  69  73 E7        29.82F
6HR MIN TEMP:  65; 6HR MAX TEMP:  79;


$$
MOZ066>068-077>081-088>096-101>105-260100-
...SOUTHWEST MISSOURI...

CITY           SKY/WX    TMP DP  RH WIND       PRES   REMARKS
SPRINGFIELD    SUNNY     90  68  48 S13       29.90F HX  94
6HR MIN TEMP:  85; 6HR MAX TEMP:  92;

JOPLIN         SUNNY     89  70  53 S17       29.89F HX  94
6HR MIN TEMP:  88; 6HR MAX TEMP:  94;


$$
MOZ032>034-039>042-045>050-055>058-069>072-260100-
...CENTRAL MISSOURI...

CITY           SKY/WX    TMP DP  RH WIND       PRES   REMARKS
COLUMBIA       MOSUNNY   87  72  60 S13       29.82F HX  93
6HR MIN TEMP:  81; 6HR MAX TEMP:  89;

JEFFERSON CITY MOSUNNY   88  70  55 S14       29.82F HX  93
6HR MIN TEMP:  82; 6HR MAX TEMP:  89;

ROLLA          MOSUNNY   84  67  56 S13       29.88S
6HR MIN TEMP:  82; 6HR MAX TEMP:  90;

SEDALIA        SUNNY     92  69  47 S16       29.82F HX  97
6HR MIN TEMP:  87; 6HR MAX TEMP:  95;

WHITEMAN AFB   SUNNY     90  69  49 SW20      29.80F HX  94
OSAGE BEACH    MOSUNNY   88  70  55 S10G20    29.85F HX  92

$$
MOZ051-052-059>065-260100-
...EAST CENTRAL MISSOURI...

CITY           SKY/WX    TMP DP  RH WIND       PRES   REMARKS
ST LOUIS INTL  PTSUNNY   80  63  55 S10G21    29.87F
6HR MIN TEMP:  69; 6HR MAX TEMP:  81; 6HR PCP:  0.02;

SPIRIT OF STL  MOSUNNY   80  62  54 S12       29.85F
6HR MIN TEMP:  70; 6HR MAX TEMP:  81; 6HR PCP:  0.01;

ST CHARLES     SUNNY     78  63  59 S9        29.85F
6HR MIN TEMP:  66; 6HR MAX TEMP:  79; 6HR PCP:  0.10;


$$
MOZ072>076-082>087-097>100-106>115-260100-
...SOUTH CENTRAL AND SOUTHEAST MISSOURI...

CITY           SKY/WX    TMP DP  RH WIND       PRES   REMARKS
CAPE GIRARDEAU CLOUDY    76  64  66 S7        29.93F
6HR MIN TEMP:  76; 6HR MAX TEMP:  81;

FARMINGTON     MOSUNNY   79  63  57 S16       29.95F
6HR MIN TEMP:  75; 6HR MAX TEMP:  79;

POPLAR BLUFF   PTSUNNY   78  62  57 S7        29.94F
6HR MIN TEMP:  78; 6HR MAX TEMP:  85;

WEST PLAINS    SUNNY     82  67  60 S10       29.96F
6HR MIN TEMP:  79; 6HR MAX TEMP:  85;


$$



USA.gov is the U.S. government's official web portal to all federal, state and local government web resources and services.